Regional Weather Roundup
Issued by NWS Kansas City/Pleasant Hill, MO

Home | Current Version | Previous Version | Text Only | Print | Product List | Glossary On
Versions: 1 2 3 4 5 6 7 8 9 10 11 12 13 14 15 16 17 18 19 20 21 22 23 24 25 26 27
000
ASUS43 KEAX 270210
RWREAX

WEATHER ROUNDUP FOR EASTERN KANSAS AND NORTHWEST MISSOURI
NATIONAL WEATHER SERVICE KANSAS CITY/PLEASANT HILL MO
900 PM CDT THU APR 26 2018

KSZ040-057-103>105-MOZ028-029-037-043-270300-
...KANSAS CITY METROPOLITAN AREA...

CITY           SKY/WX    TMP DP  RH WIND       PRES   REMARKS
K.C. INTL      CLEAR     61  40  45 W6        29.95R
K.C. DOWNTOWN  CLEAR     60  39  45 SW5       29.94R
LEES SUMMIT    PTCLDY    60  41  49 W5        29.96R
OLATHE - IXD   CLEAR     59  39  47 SW3       29.97R
OLATHE - OJC   CLEAR     58  41  53 CALM      29.96R
LAWRENCE       PTCLDY    54  46  74 CALM      29.96R

$$

MOZ001>008-011>017-020>025-030>033-038>040-044>046-053-054-270300-
...NORTHERN AND CENTRAL MISSOURI...

CITY           SKY/WX    TMP DP  RH WIND       PRES   REMARKS
ST. JOSEPH     CLEAR     59  45  59 NW9       29.94R
MOSBY          CLEAR     57  43  58 CALM      29.94R
WARRENSBURG    PTCLDY    57  43  58 SW5       29.95R
WHITEMAN AFB   PTCLDY    60  43  54 SW5       29.91R
CLINTON        PTCLDY    57  45  62 W5        29.97R
SEDALIA        CLEAR     62  46  55 W6        29.96R
WARSAW         NOT AVBL
CHILLICOTHE      N/A     57  41  55 CALM      29.93R
KIRKSVILLE     CLEAR     58  34  40 W5        29.91R

$$

MOZ041-047>049-056>058-063>065-088>090-097-270300-
...EASTERN AND SOUTHERN MISSOURI...

CITY           SKY/WX    TMP DP  RH WIND       PRES   REMARKS
ST. LOUIS INTL MOCLDY    63  38  39 CALM      29.90R
SPIRIT OF STL  PTCLDY    56  43  61 CALM      29.89R
COLUMBIA       CLEAR     60  41  49 W5        29.93R
JEFFERSON CITY PTCLDY    62  42  47 NW3       29.93R
ROLLA          CLOUDY    56  44  64 W6        29.94R
OSAGE BEACH    PTCLDY    60  45  57 NW3       29.96R
SPRINGFIELD    CLOUDY    57  48  72 SW6       29.98R
BRANSON        CLOUDY    55  48  76 NW7       30.00R
JOPLIN         MOCLDY    54  48  80 S5        30.00R
WEST PLAINS    PTCLDY    56  46  69 NW3       29.96R

$$

IAZ060-094-KSZ022-034>040-054-083-096-NEZ052-066-093-270300-
...KANSAS...SOUTHEAST NEBRASKA AND IOWA...

CITY           SKY/WX    TMP DP  RH WIND       PRES   REMARKS
TOPEKA         CLEAR     62  46  55 W5        29.97R
MANHATTAN      CLEAR     62  42  47 N3        30.00R
EMPORIA        CLEAR     59  41  51 CALM      29.99R
CHANUTE        MOCLDY    56  49  77 NW3       29.99R
WICHITA        PTCLDY    60  44  55 NW5       30.01R
OMAHA          CLEAR     56  28  34 N14       30.03R
LINCOLN        CLEAR     55  28  35 N9        30.07R
FALLS CITY     CLEAR     61  33  35 N14G22    29.98R
LAMONI         CLEAR     60  41  49 N14       29.93R
DES MOINES     CLEAR     59  33  37 NW14G23   29.95R

$$





USA.gov is the U.S. government's official web portal to all federal, state and local government web resources and services.